Tracking 31027 objects as of 19-Jul-2025
HD Live streaming from Space Station
objects crossing your sky now

DELTA 1 DEB

Track DELTA 1 DEB now!
10-day predictions


NORAD ID: 7036
Int'l Code: 1973-086AC
Perigee: 1,413.0 km
Apogee: 1,487.8 km
Inclination: 101.6 °
Period: 114.7 minutes
Semi major axis: 7821 km
RCS: 0.0934 m2 (small)
Launch date: November 6, 1973
Source: United States (US)
Launch site: AIR FORCE WESTERN TEST RANGE (AFWTR)

Note: This is SATELLITE DEBRIS
Your satellite tracking list
ICEYE-X27
Track 1 satellite(s)




NASA's NSSDC Master Catalog

Two Line Element Set (TLE):
1 07036U 73086AC  25199.47872164  .00001683  00000-0  10573-1 0  9990
2 07036 101.5606 175.6219 0047811 129.0965 349.5840 12.55090712355267
Source of the keplerian elements: AFSPC